Terminal Aerodrome Forecast
Issued by NWS

Home | Current Version | Previous Version | Graphics & Text | Print | Product List | Glossary On
Versions: 1 2 3 4 5 6 7 8 9 10 11 12 13 14 15 16 17 18 19 20
000
FTUS43 KGRB 241605 AAC
TAFMTW
TAF AMD
KMTW 241605Z 2416/2512 02005KT P6SM OVC035 WS020/26035KT
     FM241800 02006KT 5SM -RA OVC025 WS020/26035KT
     FM242000 03010G18KT 4SM -RA OVC008
     FM250600 04012G19KT 4SM -RA OVC005=

USA.gov is the U.S. government's official web portal to all federal, state and local government web resources and services.